• In Latvia
  • List of Countries
  • For 7 days
  • Water Temperature
  • Satellite Maps
  • Weather Map
  • Weather Widgets
  • user-avatar
    Login

    Hourly Weather Livingstone

    Today, 21 November, Tuesday

    Time Temperature Precipitation Wind Pressure Humidity
    00:00 +27°C° 0 mm 2 mps 682 mmHg 48%
    01:00 +26°C° 0 mm 2 mps 682 mmHg 50%
    02:00 +26°C° 0 mm 2 mps 682 mmHg 51%
    03:00 +25°C° 0 mm 1 mps 682 mmHg 53%
    04:00 +25°C° 0 mm 1 mps 682 mmHg 56%
    05:00 +24°C° 0 mm 1 mps 682 mmHg 58%
    06:00 +26°C° 0 mm 1 mps 683 mmHg 53%
    07:00 +28°C° 0 mm 2 mps 683 mmHg 48%
    08:00 +31°C° 0 mm 2 mps 684 mmHg 41%
    09:00 +34°C° 0 mm 2 mps 684 mmHg 35%
    10:00 +36°C° 0 mm 2 mps 684 mmHg 30%
    11:00 +38°C° 0 mm 2 mps 684 mmHg 24%
    12:00 +38°C° 0 mm 2 mps 683 mmHg 24%
    13:00 +37°C° 0 mm 2 mps 682 mmHg 23%
    14:00 +37°C° 0 mm 1 mps 682 mmHg 23%
    15:00 +36°C° 0 mm 1 mps 682 mmHg 23%
    16:00 +36°C° 0 mm 1 mps 681 mmHg 24%
    17:00 +36°C° 0 mm 2 mps 681 mmHg 25%
    18:00 +34°C° 0 mm 1 mps 681 mmHg 27%
    19:00 +32°C° 0 mm 1 mps 681 mmHg 30%
    20:00 +31°C° 0 mm 1 mps 681 mmHg 32%
    21:00 +30°C° 0 mm 1 mps 681 mmHg 34%
    22:00 +30°C° 0 mm 1 mps 682 mmHg 35%
    23:00 +29°C° 0 mm 1 mps 682 mmHg 37%

    Tomorrow, 22 November, Wednesday

    Time Temperature Precipitation Wind Pressure Humidity
    00:00 +28°C° 0 mm 1 mps 681 mmHg 38%
    01:00 +28°C° 0 mm 1 mps 681 mmHg 39%
    02:00 +27°C° 0 mm 1 mps 680 mmHg 40%
    03:00 +27°C° 0 mm 1 mps 681 mmHg 41%
    04:00 +26°C° 0 mm 1 mps 681 mmHg 43%
    05:00 +26°C° 0 mm 1 mps 681 mmHg 44%
    06:00 +28°C° 0 mm 1 mps 682 mmHg 40%
    07:00 +30°C° 0 mm 1 mps 682 mmHg 36%
    08:00 +32°C° 0 mm 1 mps 683 mmHg 32%
    09:00 +35°C° 0 mm 1 mps 683 mmHg 28%
    10:00 +39°C° 0 mm 1 mps 684 mmHg 24%
    11:00 +42°C° 0 mm 1 mps 684 mmHg 20%
    12:00 +41°C° 0 mm 1 mps 683 mmHg 21%
    13:00 +40°C° 0 mm 1 mps 682 mmHg 22%
    14:00 +39°C° 0 mm 1 mps 682 mmHg 23%
    15:00 +37°C° 0 mm 1 mps 681 mmHg 24%
    16:00 +36°C° 0 mm 1 mps 681 mmHg 24%
    17:00 +36°C° 0 mm 1 mps 680 mmHg 25%
    18:00 +35°C° 0.1 mm 1 mps 680 mmHg 27%
    19:00 +33°C° 0.1 mm 1 mps 681 mmHg 30%
    20:00 +32°C° 0.1 mm 1 mps 681 mmHg 33%
    21:00 +31°C° 0.2 mm 1 mps 681 mmHg 37%
    22:00 +30°C° 0.2 mm 1 mps 681 mmHg 42%
    23:00 +29°C° 0.2 mm 1 mps 681 mmHg 46%

    Day after tomorrow, 23 November, Thursday

    Time Temperature Precipitation Wind Pressure Humidity
    00:00 +28°C° 0 mm 1 mps 680 mmHg 47%
    01:00 +28°C° 0 mm 1 mps 680 mmHg 47%
    02:00 +25°C° 0 mm 0 mps 680 mmHg 48%
    03:00 +27°C° 0 mm 1 mps 680 mmHg 48%
    04:00 +27°C° 0 mm 1 mps 680 mmHg 48%
    05:00 +27°C° 0 mm 1 mps 680 mmHg 49%
    06:00 +28°C° 0 mm 1 mps 681 mmHg 44%
    07:00 +30°C° 0 mm 1 mps 681 mmHg 40%
    08:00 +31°C° 0 mm 1 mps 682 mmHg 36%
    09:00 +34°C° 0 mm 1 mps 682 mmHg 31%
    10:00 +36°C° 0 mm 1 mps 683 mmHg 26%
    11:00 +40°C° 0 mm 1 mps 683 mmHg 21%
    12:00 +39°C° 0 mm 1 mps 682 mmHg 21%
    13:00 +37°C° 0 mm 1 mps 681 mmHg 22%
    14:00 +37°C° 0 mm 1 mps 680 mmHg 22%
    15:00 +37°C° 0 mm 1 mps 680 mmHg 22%
    16:00 +37°C° 0 mm 2 mps 679 mmHg 22%
    17:00 +37°C° 0 mm 2 mps 679 mmHg 22%
    18:00 +36°C° 0 mm 2 mps 679 mmHg 26%
    19:00 +33°C° 0 mm 1 mps 680 mmHg 29%
    20:00 +31°C° 0 mm 1 mps 680 mmHg 32%
    21:00 +31°C° 0 mm 1 mps 680 mmHg 33%
    22:00 +30°C° 0 mm 2 mps 681 mmHg 34%
    23:00 +30°C° 0 mm 2 mps 681 mmHg 35%

    24 November, Friday

    Time Temperature Precipitation Wind Pressure Humidity
    00:00 +29°C° 0 mm 2 mps 681 mmHg 37%
    01:00 +29°C° 0 mm 3 mps 681 mmHg 39%
    02:00 +28°C° 0 mm 3 mps 681 mmHg 41%
    03:00 +28°C° 0 mm 3 mps 681 mmHg 46%
    04:00 +27°C° 0 mm 3 mps 681 mmHg 51%
    05:00 +26°C° 0 mm 4 mps 681 mmHg 55%
    06:00 +27°C° 0.1 mm 4 mps 682 mmHg 53%
    07:00 +28°C° 0.1 mm 3 mps 683 mmHg 51%
    08:00 +29°C° 0.1 mm 3 mps 683 mmHg 49%
    09:00 +31°C° 0 mm 3 mps 684 mmHg 43%
    10:00 +34°C° 0 mm 3 mps 684 mmHg 38%
    11:00 +36°C° 0 mm 3 mps 684 mmHg 33%
    12:00 +36°C° 0 mm 2 mps 683 mmHg 31%
    13:00 +36°C° 0 mm 2 mps 682 mmHg 30%
    14:00 +36°C° 0 mm 1 mps 681 mmHg 29%
    15:00 +36°C° 0 mm 2 mps 681 mmHg 30%
    16:00 +35°C° 0 mm 2 mps 681 mmHg 31%
    17:00 +35°C° 0 mm 2 mps 681 mmHg 32%
    18:00 +32°C° 0.1 mm 2 mps 681 mmHg 38%
    19:00 +31°C° 0.1 mm 2 mps 681 mmHg 44%
    20:00 +29°C° 0.1 mm 2 mps 681 mmHg 50%
    21:00 +28°C° 0.1 mm 2 mps 681 mmHg 53%
    22:00 +28°C° 0.1 mm 2 mps 682 mmHg 56%
    23:00 +27°C° 0.1 mm 1 mps 682 mmHg 59%

    25 November, Saturday

    Time Temperature Precipitation Wind Pressure Humidity
    00:00 +27°C° 0 mm 1 mps 681 mmHg 61%
    01:00 +26°C° 0 mm 1 mps 681 mmHg 63%
    02:00 +26°C° 0 mm 1 mps 680 mmHg 65%
    03:00 +26°C° 0 mm 1 mps 680 mmHg 65%
    04:00 +26°C° 0 mm 1 mps 680 mmHg 66%
    05:00 +25°C° 0 mm 1 mps 680 mmHg 67%
    06:00 +27°C° 0 mm 1 mps 681 mmHg 63%
    07:00 +28°C° 0 mm 1 mps 682 mmHg 59%
    08:00 +29°C° 0 mm 2 mps 683 mmHg 54%
    09:00 +32°C° 0.1 mm 1 mps 683 mmHg 46%
    10:00 +34°C° 0.1 mm 1 mps 683 mmHg 38%
    11:00 +37°C° 0.1 mm 1 mps 683 mmHg 30%
    12:00 +37°C° 0 mm 1 mps 682 mmHg 30%
    13:00 +36°C° 0 mm 1 mps 681 mmHg 30%
    14:00 +36°C° 0 mm 1 mps 680 mmHg 30%
    15:00 +35°C° 0.1 mm 1 mps 680 mmHg 32%
    16:00 +35°C° 0.1 mm 1 mps 680 mmHg 33%
    17:00 +34°C° 0.1 mm 1 mps 679 mmHg 35%
    18:00 +32°C° 1.4 mm 2 mps 680 mmHg 44%
    19:00 +29°C° 1.4 mm 2 mps 680 mmHg 54%
    20:00 +27°C° 1.4 mm 3 mps 680 mmHg 63%
    21:00 +27°C° 0.3 mm 3 mps 680 mmHg 63%
    22:00 +27°C° 0.3 mm 3 mps 680 mmHg 64%
    23:00 +26°C° 0.3 mm 3 mps 681 mmHg 64%

    26 November, Sunday

    Time Temperature Precipitation Wind Pressure Humidity
    00:00 +26°C° 0.2 mm 2 mps 680 mmHg 65%
    01:00 +26°C° 0.2 mm 2 mps 680 mmHg 66%
    02:00 +26°C° 0.2 mm 1 mps 679 mmHg 68%
    03:00 +25°C° 0.3 mm 1 mps 679 mmHg 69%
    04:00 +25°C° 0.3 mm 1 mps 680 mmHg 70%
    05:00 +25°C° 0.3 mm 1 mps 680 mmHg 71%
    06:00 +26°C° 0 mm 2 mps 681 mmHg 67%
    07:00 +27°C° 0 mm 2 mps 682 mmHg 62%
    08:00 +29°C° 0 mm 3 mps 682 mmHg 57%
    09:00 +31°C° 0 mm 3 mps 682 mmHg 50%
    10:00 +34°C° 0 mm 3 mps 683 mmHg 43%
    11:00 +36°C° 0 mm 3 mps 683 mmHg 36%
    12:00 +36°C° 0.1 mm 3 mps 682 mmHg 34%
    13:00 +37°C° 0.1 mm 3 mps 681 mmHg 32%
    14:00 +38°C° 0.1 mm 2 mps 681 mmHg 31%
    15:00 +37°C° 0 mm 2 mps 680 mmHg 32%
    16:00 +36°C° 0 mm 2 mps 680 mmHg 33%
    17:00 +35°C° 0 mm 2 mps 680 mmHg 35%
    18:00 +33°C° 2 mm 3 mps 680 mmHg 45%
    19:00 +30°C° 2 mm 3 mps 681 mmHg 56%
    20:00 +27°C° 2 mm 3 mps 681 mmHg 66%
    21:00 +27°C° 1.5 mm 4 mps 681 mmHg 68%
    22:00 +26°C° 1.5 mm 4 mps 682 mmHg 70%
    23:00 +26°C° 1.5 mm 5 mps 682 mmHg 71%
    Show more